| time (UTC) | temp F | wind direction | speed MPH | gust MPH | rain 1hr in | rain 24hr in | rain mn in | humidity % | barometer mb |
| 20260502161622 | 67 | 327 | 3.0 | 0.0 | 0.00 | 0.00 | 0.07 | 68 | 1018.8 |
| 20260502151608 | 62 | 16 | 3.0 | 0.0 | 0.00 | 0.00 | 0.07 | 80 | 1018.7 |
| 20260502113049 | 55 | 40 | 2.0 | 0.0 | 0.00 | 0.00 | 0.07 | 79 | 1015.8 |
| 20260502101510 | 55 | 263 | 1.0 | 0.0 | 0.00 | 0.00 | 0.07 | 79 | 1015.2 |
| 20260502100107 | 55 | 344 | 1.0 | 0.0 | 0.00 | 0.00 | 0.07 | 79 | 1015.0 |
| 20260502090106 | 56 | 19 | 2.0 | 0.0 | 0.00 | 0.00 | 0.06 | 78 | 1014.6 |
| 20260502054554 | 54 | 57 | 0.0 | 0.0 | 0.00 | 0.00 | 0.02 | 79 | 1014.4 |
| 20260502053020 | 54 | 57 | 0.0 | 0.0 | 0.00 | 0.00 | 0.01 | 79 | 1014.5 |
| 20260502051612 | 54 | 57 | 1.0 | 0.0 | 0.00 | 0.00 | 0.01 | 79 | 1014.6 |
| 20260502041553 | 54 | 20 | 2.0 | 0.0 | 0.00 | 0.00 | 1.02 | 79 | 1014.7 |
| 20260502040113 | 54 | 49 | 2.0 | 0.0 | 0.00 | 0.00 | 1.01 | 79 | 1014.7 |
| 20260502031611 | 53 | 97 | 4.0 | 0.0 | 0.00 | 0.00 | 0.99 | 79 | 1014.1 |
| 20260502024535 | 53 | 22 | 4.0 | 0.0 | 0.00 | 0.00 | 0.97 | 80 | 1014.5 |
| 20260502021530 | 54 | 65 | 5.0 | 0.0 | 0.00 | 0.00 | 0.96 | 79 | 1013.3 |
| 20260502014600 | 55 | 284 | 4.0 | 0.0 | 0.00 | 0.00 | 0.94 | 79 | 1013.4 |
| 20260502013053 | 55 | 19 | 3.0 | 0.0 | 0.00 | 0.00 | 0.93 | 79 | 1013.3 |
| 20260502011616 | 55 | 300 | 4.0 | 0.0 | 0.00 | 0.00 | 0.92 | 79 | 1012.6 |
| 20260502004603 | 55 | 343 | 3.0 | 0.0 | 0.00 | 0.00 | 0.91 | 79 | 1012.5 |
| 20260502001553 | 55 | 71 | 3.0 | 0.0 | 0.00 | 0.00 | 0.89 | 79 | 1011.1 |
| 20260502000042 | 55 | 360 | 3.0 | 0.0 | 0.00 | 0.00 | 0.88 | 79 | 1010.9 |
| 20260501234634 | 55 | 22 | 4.0 | 0.0 | 0.00 | 0.00 | 0.87 | 79 | 1010.7 |
| 20260501223059 | 55 | 51 | 3.0 | 0.0 | 0.00 | 0.00 | 0.83 | 81 | 1011.8 |
| 20260501214632 | 55 | 55 | 4.0 | 0.0 | 0.00 | 0.00 | 0.81 | 81 | 1011.2 |
| 20260501211516 | 56 | 337 | 5.0 | 0.0 | 0.00 | 0.00 | 0.79 | 81 | 1010.8 |
| 20260501210009 | 56 | 15 | 3.0 | 0.0 | 0.00 | 0.00 | 0.78 | 81 | 1010.6 |
| 20260501204600 | 56 | 19 | 6.0 | 0.0 | 0.00 | 0.00 | 0.78 | 80 | 1010.8 |
| 20260501203055 | 56 | 76 | 5.0 | 0.0 | 0.00 | 0.00 | 0.77 | 80 | 1009.9 |
| 20260501201544 | 57 | 41 | 4.0 | 0.0 | 0.00 | 0.00 | 0.76 | 79 | 1010.0 |
| 20260501200132 | 57 | 46 | 6.0 | 0.0 | 0.00 | 0.00 | 0.75 | 79 | 1009.8 |
| 20260501194531 | 57 | 11 | 8.0 | 0.0 | 0.00 | 0.00 | 0.74 | 78 | 1008.9 |
| 20260501190157 | 57 | 11 | 5.0 | 0.0 | 0.00 | 0.00 | 0.71 | 76 | 1008.8 |
| 20260501184550 | 57 | 355 | 6.0 | 0.0 | 0.00 | 0.00 | 0.70 | 76 | 1009.8 |
| 20260501183038 | 57 | 5 | 7.0 | 0.0 | 0.00 | 0.00 | 0.69 | 76 | 1010.5 |
| 20260501181530 | 57 | 338 | 5.0 | 0.0 | 0.00 | 0.00 | 0.68 | 76 | 1011.0 |
| 20260501171552 | 58 | 38 | 4.0 | 0.0 | 0.00 | 0.00 | 0.62 | 76 | 1012.1 |
| 20260501170044 | 58 | 360 | 4.0 | 0.0 | 0.00 | 0.00 | 0.61 | 76 | 1012.7 |
| 20260501163125 | 58 | 49 | 4.0 | 0.0 | 0.00 | 0.00 | 0.56 | 76 | 1013.0 |